[[{"header":{"parameterUnit":"m.s-1","parameterCategory":1,"la1":30.2991,"la2":30.254,"lo1":-89.0895,"lo2":-89.0444,"dy":0.0017,"dx":0.0017,"nx":28,"ny":28,"refTime":"2025-03-05T03:00:00:Z","depth":0,"parameterNumber":2,"parameterNumberName":"U-component_of_WINDS"},"data":[0,0,0,0,0,0,0,0,0,0,0,0,0,0,0,0,0,0,0,0,0,0,0,0,0,0,0,0,0,0,0,0,0,0,0,0,0,0,0,0,0,0,0,0,0,0,0,0,0,0,0,0,0,0,0,0,0,0,8.2175,8.2177,0,8.2322,8.2323,8.2325,8.2263,8.226,8.2256,8.2253,8.2406,8.2413,8.242,0,0,0,0,0,0,0,0,0,0,0,0,0,8.1845,8.1852,8.2175,8.2177,8.2179,8.2322,8.2324,8.2326,8.2264,8.226,8.2255,8.2251,8.2403,8.2412,8.2421,0,0,0,0,0,0,0,0,0,0,0,0,0,8.199,8.1854,8.2175,8.2165,8.2166,8.2321,8.2324,8.2326,8.2265,8.2259,8.2254,8.2249,8.24,8.2411,8.2422,8.2596,0,0,8.2456,8.2461,0,0,0,0,0,0,0,0,8.1982,8.2002,8.2165,8.2166,8.2167,8.2269,8.2263,8.2417,8.2266,8.2227,8.2253,8.2247,8.2365,8.2378,8.2417,8.2604,8.261,8.2457,8.2463,8.2468,8.2471,0,0,0,0,0,0,0,8.1972,8.1996,8.2233,8.2167,8.2169,8.2155,8.2169,8.2292,8.2324,8.223,8.2226,8.2244,8.2364,8.2407,8.2421,8.2612,8.2456,8.2466,8.2473,8.2477,8.2953,8.2959,0,0,0,0,0,0,8.1961,8.1988,8.2228,8.2237,8.2059,8.2165,8.2181,8.2241,8.2322,8.233,8.2249,8.2241,8.2391,8.2408,8.2426,8.2638,8.2468,8.2478,8.2485,8.2947,8.2954,8.2961,0,0,0,0,0,0,8.1954,8.1983,8.2222,8.2112,8.2141,8.2176,8.2244,8.2247,8.229,8.2336,8.2342,8.2286,8.2387,8.241,8.2555,8.2643,8.2483,8.2493,8.294,8.2949,8.2958,8.3063,0,0,0,0,0,0,8.1945,8.1981,8.2047,8.2113,8.2147,8.2348,8.225,8.2254,8.2309,8.23,8.2373,8.238,8.2385,8.2539,8.2566,8.2655,8.2502,8.2932,8.2944,8.2955,8.3052,8.3074,8.3094,0,0,0,0,0,8.1934,8.207,8.205,8.208,8.2229,8.2353,8.2373,8.2375,8.2316,8.2383,8.2414,8.2378,8.2628,8.2554,8.2584,8.2678,8.2927,8.2941,8.2954,8.3042,8.307,8.3093,0,0,0,0,0,0,8.2013,8.2079,8.2057,8.2219,8.2281,8.2343,8.2427,8.2403,8.2484,8.2472,8.2472,8.2489,8.264,8.2673,8.2589,8.2853,8.2769,8.2789,8.2826,8.2852,8.2873,8.2863,8.2511,0,0,0,0,0,8.2049,8.2143,8.2196,8.2334,8.2366,8.2392,8.2446,8.2442,8.2507,8.2533,8.2573,8.2638,8.2732,8.2794,8.2882,8.3056,8.3073,8.3135,8.3156,8.3173,8.3191,8.3289,8.3319,8.3005,8.3005,8.3005,0,0,8.2125,8.2172,8.2232,8.2351,8.2398,8.2498,8.2414,8.2522,8.2596,8.2549,8.2689,8.2722,8.2794,8.2956,8.3029,8.2988,8.3281,8.319,8.3203,8.3213,8.3306,8.3336,8.3362,8.3015,8.3013,8.3011,0,0,8.2315,8.2359,8.248,8.253,8.2604,8.262,8.2649,8.2716,8.2735,8.2876,8.2844,8.2933,8.3093,8.3147,8.3196,8.3409,8.3381,8.3438,8.3548,8.3644,8.3669,8.3691,8.377,8.3798,8.3456,8.3456,8.3456,0,8.24,8.2548,8.2546,8.2658,8.2712,8.2674,8.2799,8.2847,8.2946,8.2986,8.2938,8.3141,8.3187,8.3362,8.3415,8.3454,8.349,8.343,8.3665,8.3687,8.3708,8.3783,8.3813,8.3463,8.3462,8.3461,8.3461,0,8.2651,8.2754,8.2843,8.294,8.3005,8.3122,8.314,8.3206,8.3197,8.322,8.3365,8.3419,8.352,8.356,8.3552,8.3736,8.3709,8.3664,8.358,8.3744,8.3816,8.3844,8.3472,8.347,8.3468,8.3466,0,0,8.2894,8.299,8.3024,8.3069,8.3148,8.3228,8.3345,8.3443,8.3501,8.3571,8.3671,8.3809,8.3769,8.3824,8.3822,8.3906,8.4076,8.3851,8.3853,8.3893,8.4285,8.4321,8.4354,8.4057,8.4062,8.4067,8.428,0,8.3093,8.3297,8.33,8.3489,8.3586,8.3552,8.3654,8.3715,8.374,8.3827,8.3854,8.3953,8.389,8.3924,8.4005,8.4038,8.4155,8.4022,8.4153,8.4157,8.4138,8.4391,8.4428,8.4627,8.4308,8.4312,8.4316,0,8.3351,8.343,8.3629,8.3697,8.3738,8.383,8.3922,8.4004,8.4074,8.4086,8.4149,8.4136,8.4257,8.4169,8.4338,8.4248,8.4301,8.4326,8.4334,8.4348,8.4248,8.4415,8.469,8.4722,8.4359,8.4356,8.4353,0,8.3513,8.3669,8.3809,8.3848,8.393,8.3996,8.4034,8.4098,8.4158,8.4238,8.4277,8.4371,8.4423,8.4497,8.451,8.4443,8.4682,8.4593,8.4698,8.4698,8.4751,8.4748,8.5042,8.4781,8.4781,8.478,8.478,0,8.3736,8.386,8.3883,8.397,8.4108,8.4111,8.4249,8.4281,8.4339,8.4433,8.4408,8.4497,8.4507,8.46,8.4611,8.4752,8.4775,8.479,8.4792,8.4794,8.4792,8.483,8.4818,8.4788,8.4786,8.4785,8.4783,0,8.3941,8.3961,8.4112,8.4178,8.4198,8.4297,8.4354,8.4438,8.446,8.458,8.4608,8.4643,8.4751,8.4771,8.4898,8.4905,8.5075,8.5061,8.5051,8.5051,8.5155,8.5147,8.5486,8.5533,8.5239,8.5242,8.5244,0,8.4083,8.4178,8.4254,8.4315,8.4356,8.4454,8.4515,8.4522,8.4587,8.4675,8.4749,8.4854,8.4939,8.5113,8.5151,8.5249,8.524,8.5352,8.5254,8.5254,8.5245,8.5241,8.5252,8.5372,8.5375,8.5377,8.5379,0,8.4335,8.4341,8.4429,8.4523,8.4597,8.4671,8.4741,8.4793,8.4809,8.4884,8.4994,8.5059,8.519,8.5296,8.5394,8.5434,8.5412,8.541,8.544,8.5444,8.5436,8.5445,8.5106,8.5402,8.54,8.5398,8.5397,8.5396,8.4515,8.4599,8.4667,8.4767,8.4821,8.4887,8.497,8.5003,8.5095,8.5201,8.52,8.5321,8.5391,8.552,8.5567,8.5663,8.5628,8.567,8.5682,8.5693,8.5704,8.5418,8.5681,8.568,8.5679,8.5679,8.5678,0,8.4768,8.481,8.4903,8.5002,8.5082,8.5052,8.5129,8.5198,8.5305,8.5372,8.5456,8.5584,8.5687,8.5734,8.5836,8.5904,8.5897,8.5931,8.5928,8.5938,8.5729,8.5694,8.5936,8.5936,8.5936,8.5936,8.5936,8.5935,8.491,8.5051,8.5065,8.5234,8.5275,8.5394,8.5441,8.5503,8.5556,8.57,8.5786,8.5815,8.5875,8.5981,8.6076,8.6087,8.6127,8.6167,8.6174,8.5978,8.5952,8.5927,8.5895,8.6175,8.6176,8.6376,8.6378,8.6379]},{"header":{"parameterUnit":"m.s-1","parameterCategory":1,"la1":30.2991,"la2":30.254,"lo1":-89.0895,"lo2":-89.0444,"dy":0.0017,"dx":0.0017,"nx":28,"ny":28,"refTime":"2025-03-05T03:00:00:Z","depth":0,"parameterNumber":3,"parameterNumberName":"V-component_of_WINDS"},"data":[0,0,0,0,0,0,0,0,0,0,0,0,0,0,0,0,0,0,0,0,0,0,0,0,0,0,0,0,0,0,0,0,0,0,0,0,0,0,0,0,0,0,0,0,0,0,0,0,0,0,0,0,0,0,0,0,0,0,-1.7522,-1.7522,0,-1.7567,-1.7568,-1.7568,-1.7593,-1.7593,-1.7593,-1.7593,-1.7639,-1.764,-1.7641,0,0,0,0,0,0,0,0,0,0,0,0,0,-1.7456,-1.7457,-1.7521,-1.7522,-1.7523,-1.7567,-1.7568,-1.7568,-1.7593,-1.7593,-1.7593,-1.7593,-1.7638,-1.764,-1.7641,0,0,0,0,0,0,0,0,0,0,0,0,0,-1.7491,-1.7458,-1.7521,-1.754,-1.7542,-1.7567,-1.7568,-1.7569,-1.7593,-1.7593,-1.7593,-1.7593,-1.7638,-1.764,-1.7641,-1.7651,0,0,-1.7647,-1.7647,0,0,0,0,0,0,0,0,-1.7489,-1.7494,-1.7537,-1.7539,-1.7541,-1.7574,-1.7562,-1.7596,-1.7593,-1.7574,-1.7593,-1.7593,-1.7617,-1.7621,-1.7629,-1.7653,-1.7655,-1.7647,-1.7648,-1.7649,-1.7649,0,0,0,0,0,0,0,-1.7487,-1.7492,-1.754,-1.7537,-1.754,-1.7547,-1.7552,-1.7568,-1.7594,-1.7575,-1.7577,-1.7582,-1.7618,-1.7627,-1.763,-1.7655,-1.7647,-1.7648,-1.7649,-1.765,-1.7691,-1.7691,0,0,0,0,0,0,-1.7481,-1.749,-1.7538,-1.7541,-1.7515,-1.7548,-1.7553,-1.7564,-1.7594,-1.7599,-1.7582,-1.7583,-1.7624,-1.7628,-1.7632,-1.7646,-1.7649,-1.765,-1.7651,-1.7691,-1.7691,-1.7691,0,0,0,0,0,0,-1.748,-1.7485,-1.7536,-1.7516,-1.7523,-1.7549,-1.756,-1.7565,-1.7573,-1.7599,-1.7604,-1.7586,-1.7624,-1.763,-1.7646,-1.7648,-1.7651,-1.7653,-1.7691,-1.7691,-1.7691,-1.7674,0,0,0,0,0,0,-1.7478,-1.7485,-1.7488,-1.7516,-1.7524,-1.7549,-1.756,-1.7565,-1.7576,-1.7578,-1.7605,-1.7609,-1.7625,-1.7644,-1.7648,-1.7651,-1.7654,-1.7691,-1.7691,-1.7691,-1.7674,-1.7673,-1.7672,0,0,0,0,0,-1.7475,-1.7481,-1.7488,-1.7494,-1.7529,-1.7549,-1.7554,-1.7572,-1.7576,-1.758,-1.7598,-1.7608,-1.7647,-1.7645,-1.765,-1.7653,-1.7691,-1.7691,-1.7691,-1.7675,-1.7673,-1.7672,0,0,0,0,0,0,-1.7452,-1.7484,-1.7493,-1.7507,-1.7526,-1.7554,-1.7559,-1.757,-1.7587,-1.7588,-1.761,-1.7616,-1.7631,-1.7644,-1.7641,-1.7665,-1.767,-1.7672,-1.7656,-1.7655,-1.7654,-1.7651,-1.7656,0,0,0,0,0,-1.7448,-1.7462,-1.749,-1.75,-1.7509,-1.7532,-1.7542,-1.7555,-1.7575,-1.7582,-1.76,-1.7619,-1.7636,-1.7646,-1.7663,-1.7677,-1.7683,-1.7681,-1.768,-1.7679,-1.768,-1.769,-1.769,-1.7692,-1.7692,-1.7692,0,0,-1.7441,-1.7461,-1.7468,-1.7496,-1.7512,-1.7526,-1.7539,-1.7553,-1.7564,-1.7584,-1.7602,-1.7616,-1.7638,-1.7654,-1.7662,-1.7665,-1.7682,-1.768,-1.7679,-1.768,-1.769,-1.769,-1.769,-1.7692,-1.7692,-1.7692,0,0,-1.7435,-1.7451,-1.7462,-1.7478,-1.7502,-1.7518,-1.752,-1.7547,-1.7558,-1.7576,-1.7592,-1.7606,-1.7633,-1.7649,-1.7661,-1.7664,-1.7675,-1.7669,-1.7663,-1.7673,-1.7673,-1.7673,-1.7675,-1.7676,-1.7669,-1.7669,-1.7669,0,-1.7423,-1.7445,-1.7466,-1.748,-1.7493,-1.7513,-1.7524,-1.7539,-1.7567,-1.7575,-1.7578,-1.7616,-1.7632,-1.7652,-1.7654,-1.7662,-1.7666,-1.7666,-1.7671,-1.7672,-1.7672,-1.7674,-1.7675,-1.7669,-1.7669,-1.7669,-1.7669,0,-1.743,-1.7445,-1.7451,-1.7479,-1.7492,-1.7505,-1.7528,-1.7539,-1.7552,-1.7567,-1.7587,-1.7607,-1.7629,-1.7635,-1.7647,-1.7658,-1.766,-1.7667,-1.7673,-1.7671,-1.7673,-1.7674,-1.7667,-1.7668,-1.7668,-1.7668,0,0,-1.7408,-1.7449,-1.7451,-1.7465,-1.7494,-1.7506,-1.7521,-1.7543,-1.7553,-1.7572,-1.7585,-1.761,-1.7617,-1.7631,-1.7645,-1.7653,-1.7656,-1.766,-1.766,-1.7659,-1.7672,-1.7666,-1.7667,-1.7664,-1.7664,-1.7664,-1.767,0,-1.7407,-1.7434,-1.7454,-1.7474,-1.749,-1.751,-1.7523,-1.7543,-1.7558,-1.7574,-1.7592,-1.7609,-1.7617,-1.7626,-1.7635,-1.7654,-1.7659,-1.7653,-1.7677,-1.7678,-1.7671,-1.7668,-1.7662,-1.7667,-1.7671,-1.7671,-1.7672,0,-1.7409,-1.7429,-1.745,-1.748,-1.7487,-1.7498,-1.7521,-1.7536,-1.7559,-1.7571,-1.7587,-1.7602,-1.7619,-1.7624,-1.7648,-1.7644,-1.7655,-1.7666,-1.7667,-1.767,-1.7674,-1.7672,-1.7669,-1.7669,-1.7673,-1.7673,-1.7673,0,-1.7393,-1.7424,-1.7442,-1.7453,-1.7487,-1.7495,-1.751,-1.7533,-1.7546,-1.7567,-1.7576,-1.7598,-1.761,-1.7627,-1.7648,-1.7649,-1.7671,-1.7677,-1.7681,-1.7681,-1.7685,-1.7684,-1.7684,-1.7691,-1.7691,-1.7691,-1.7691,0,-1.7389,-1.7402,-1.7435,-1.7446,-1.7461,-1.7485,-1.7499,-1.7516,-1.7537,-1.7552,-1.7571,-1.7584,-1.7611,-1.7628,-1.7645,-1.7664,-1.7669,-1.7679,-1.7683,-1.7677,-1.7676,-1.7685,-1.7685,-1.7691,-1.7691,-1.7691,-1.7691,0,-1.7373,-1.7396,-1.7417,-1.7448,-1.7457,-1.7467,-1.7494,-1.7506,-1.7523,-1.7542,-1.7548,-1.7576,-1.7597,-1.762,-1.7649,-1.766,-1.7679,-1.7684,-1.7671,-1.7673,-1.7677,-1.7677,-1.7682,-1.7685,-1.769,-1.769,-1.769,0,-1.7369,-1.738,-1.7413,-1.7425,-1.7439,-1.7458,-1.7472,-1.7496,-1.7509,-1.7538,-1.7547,-1.757,-1.759,-1.7624,-1.7646,-1.7669,-1.7676,-1.7677,-1.7679,-1.7674,-1.7677,-1.7677,-1.7678,-1.7675,-1.7675,-1.7675,-1.7675,0,-1.7361,-1.7372,-1.7391,-1.7416,-1.7432,-1.7452,-1.7472,-1.7481,-1.7509,-1.7524,-1.7547,-1.7562,-1.7593,-1.7616,-1.7642,-1.7658,-1.7672,-1.7674,-1.7677,-1.7671,-1.7663,-1.7669,-1.7669,-1.7674,-1.7674,-1.7674,-1.7674,-1.7674,-1.7351,-1.7362,-1.7388,-1.741,-1.7428,-1.7448,-1.7461,-1.7481,-1.75,-1.7528,-1.7541,-1.7564,-1.7589,-1.7626,-1.7642,-1.7661,-1.7665,-1.7668,-1.7669,-1.7669,-1.7668,-1.766,-1.7665,-1.7665,-1.7666,-1.7666,-1.7666,0,-1.7345,-1.7363,-1.7382,-1.7411,-1.7429,-1.7441,-1.7465,-1.7479,-1.7499,-1.7522,-1.7542,-1.7569,-1.7592,-1.7618,-1.7643,-1.7653,-1.766,-1.7659,-1.7659,-1.7663,-1.7663,-1.7659,-1.7653,-1.7653,-1.7653,-1.7653,-1.7653,-1.7653,-1.7343,-1.7363,-1.7378,-1.7408,-1.7426,-1.7449,-1.7462,-1.7481,-1.7499,-1.7529,-1.7549,-1.7565,-1.759,-1.7617,-1.764,-1.7647,-1.7656,-1.7653,-1.7662,-1.7661,-1.7662,-1.7663,-1.7659,-1.7654,-1.7654,-1.766,-1.766,-1.766]}]]